FLOCK 4G 1

导读

FLOCK 4G 1是一颗由美国发射的卫星,于2025年1月14日完成发射。作为FLOCK系列卫星的组成部分,该卫星延续了该系列在对地观测领域的技术路线,依托较低轨道部署优势,可获取高分辨率地球影像数据,在农业监测、城市规划、灾害评估以及地理信息更新等领域具备应用潜力,目前已在轨开展相关观测任务。

基本信息
目录编号:
62666
目录名称:
FLOCK 4G 1
国际标识:
2025-009BK
轨道中心:
EARTH
卫星名称:
FLOCK 4G 1
卫星全名:
FLOCK 4G 1
卫星状态:
在轨 (已飞行599 天)
发射日期:
2025-01-14 UTC
国别 :
美国 (US)
星等 :
--
轨道信息
数据来源 国际轨道数据
星历时间: 2026-09-04T12:20:12+0800
1天前
查看轨道信息
半长轴: 6850.597km
偏心率: 0.0005077
轨道倾角: 97.398°
近地点辐角 55.358°
升交点赤经 328.919°
平近点角 304.814°
近地点: 468.981km
远地点: 475.939km
周期: 94.049分钟
每日圈数: 15.311235
详细信息
使用方式:
暂无
2D轨道图
3D轨道图
轨道高度分析图
轨道倾角分析图
轨道综合分析图
查看轨道综合分析图